Akron, OH

12:28 AM EST on December 16, 2019 (GMT -0500)
Akron Fulton International

Weather History for KAKR - November, 2019

Change the Weather History Date:

Saturday, November 16, 2019

  Actual Average (WUND) Record (WUND)
Temperature  
Mean Temperature 36 °F -  
Max Temperature 42 °F - - (-1)
Min Temperature 30 °F - - (-1)
Degree Days  
Heating Degree Days 29    
Moisture  
Dew Point 21 °F    
Average Humidity 57    
Maximum Humidity 70    
Minimum Humidity 41    
Precipitation  
Precipitation 0.00 in - - ()
Sea Level Pressure  
Sea Level Pressure 30.36 in    
Wind  
Wind Speed 6 mph (NE)    
Max Wind Speed 13 mph    
Max Gust Speed 17 mph    
Visibility 10 miles    
Events      
Averages and records for this station are not official NWS values.
T = Trace of Precipitation, MM = Missing Value Source: NWS Daily Summary

Daily Weather History Graph

Daily Weather History Graph

Search for Another Location

Airport or City:

Astronomy

Nov. 16, 2019 Rise Set
Actual Time 7:14 AM EST 5:06 PM EST
Civil Twilight 6:44 AM EST 5:36 PM EST
Nautical Twilight 6:11 AM EST 6:09 PM EST
Astronomical Twilight 5:38 AM EST 6:41 PM EST
Moon 8:37 PM EST 11:07 AM EST
Length of Visible Light 10h 51m
Length of Day
9h 52m
Waning Gibbous, 82% of the Moon is Illuminated
Nov 16
Waning Gibbous
Nov 19
Last Quarter
Nov 26
New
Dec 4
First Quarter
Dec 12
Full

Hourly Weather History & Observations

Time (EST) Temp. Windchill Dew Point Humidity Pressure Visibility Wind Dir Wind Speed Gust Speed Precip Events Conditions
12:54 AM 36.0 °F 33.3 °F 27.0 °F 70% 30.38 in 10.0 mi NE 3.5 mph - N/A   Overcast
1:08 AM 36.0 °F - 27.0 °F 70% 30.35 in 10.0 mi Calm Calm - N/A   Overcast
1:54 AM 36.0 °F - 27.0 °F 70% 30.37 in 10.0 mi Calm Calm - N/A   Overcast
2:54 AM 36.0 °F 29.6 °F 27.0 °F 70% 30.37 in 10.0 mi NNE 8.1 mph - N/A   Overcast
3:54 AM 36.0 °F 28.5 °F 27.0 °F 70% 30.36 in 10.0 mi NE 10.4 mph - N/A   Overcast
4:46 AM 36.0 °F 29.0 °F 25.0 °F 64% 30.34 in 10.0 mi NE 9.2 mph - N/A   Overcast
4:54 AM 35.1 °F 26.4 °F 25.0 °F 67% 30.38 in 10.0 mi NE 12.7 mph 17.3 mph N/A   Overcast
5:54 AM 34.0 °F 27.2 °F 23.0 °F 64% 30.39 in 10.0 mi NNE 8.1 mph - N/A   Overcast
6:54 AM 34.0 °F 28.0 °F 23.0 °F 64% 30.41 in 10.0 mi NE 6.9 mph - N/A   Overcast
7:16 AM 34.0 °F 28.0 °F 24.1 °F 67% 30.38 in 10.0 mi ENE 6.9 mph - N/A   Overcast
7:54 AM 34.0 °F 27.2 °F 23.0 °F 64% 30.43 in 10.0 mi NE 8.1 mph - N/A   Overcast
8:54 AM 33.1 °F 25.5 °F 21.9 °F 64% 30.44 in 10.0 mi ENE 9.2 mph - N/A   Mostly Cloudy
9:01 AM 33.1 °F 26.1 °F 21.9 °F 64% 30.41 in 10.0 mi NE 8.1 mph - N/A   Scattered Clouds
9:08 AM 33.1 °F 24.4 °F 21.0 °F 61% 30.41 in 10.0 mi NE 11.5 mph - N/A   Mostly Cloudy
9:18 AM 33.1 °F 24.4 °F 21.0 °F 61% 30.41 in 10.0 mi NE 11.5 mph - N/A   Partly Cloudy
9:54 AM 35.1 °F 28.6 °F 21.0 °F 57% 30.43 in 10.0 mi ENE 8.1 mph - N/A   Partly Cloudy
10:54 AM 37.0 °F 31.0 °F 21.0 °F 52% 30.42 in 10.0 mi ENE 8.1 mph - N/A   Clear
11:54 AM 39.9 °F 33.4 °F 21.0 °F 47% 30.38 in 10.0 mi ENE 10.4 mph - N/A   Clear
12:54 PM 39.9 °F 33.9 °F 19.0 °F 43% 30.35 in 10.0 mi ENE 9.2 mph - N/A   Clear
1:54 PM 41.0 °F 35.8 °F 19.0 °F 41% 30.33 in 10.0 mi East 8.1 mph - N/A   Clear
2:54 PM 42.1 °F 36.6 °F 21.0 °F 43% 30.32 in 10.0 mi NE 9.2 mph - N/A   Clear
3:54 PM 41.0 °F 34.7 °F 21.0 °F 45% 30.31 in 10.0 mi NE 10.4 mph - N/A   Clear
4:54 PM 37.9 °F 32.1 °F 19.9 °F 48% 30.32 in 10.0 mi NE 8.1 mph - N/A   Clear
5:54 PM 34.0 °F 27.2 °F 19.0 °F 54% 30.32 in 10.0 mi NE 8.1 mph - N/A   Clear
6:54 PM 33.1 °F 26.9 °F 17.1 °F 52% 30.32 in 10.0 mi NE 6.9 mph - N/A   Clear
7:54 PM 30.9 °F 25.2 °F 16.0 °F 54% 30.32 in 10.0 mi NE 5.8 mph - N/A   Clear
8:54 PM 30.9 °F 27.5 °F 15.1 °F 52% 30.30 in 10.0 mi ENE 3.5 mph - N/A   Clear
9:54 PM 30.9 °F 27.5 °F 15.1 °F 52% 30.28 in 10.0 mi ENE 3.5 mph - N/A   Clear
10:54 PM 30.9 °F 27.5 °F 12.0 °F 46% 30.26 in 10.0 mi ENE 3.5 mph - N/A   Clear
11:54 PM 32.0 °F - 10.9 °F 42% 30.25 in 10.0 mi Calm Calm - N/A   Clear